When you browse on this site, cookies collect data to enhance your experience and personalize the content and advertising you see.
Visit our Privacy Policy to learn more. By continuing to use the site, you agree to this use of cookies and data.
  • In Hungary
  • List of Countries
  • For 7 days
  • Water Temperature
  • Weather Map
  • News
  • Weather Widgets
  • user-avatar
    Login

    Hourly Weather Camarate

    Today, 17 November, Sunday

    Time Temperature Precipitation Wind Pressure Humidity
    00:00 +13°C° 0.8 mm 5 mps 753 mmHg 83%
    01:00 +14°C° 0.8 mm 6 mps 752 mmHg 86%
    02:00 +14°C° 0.8 mm 6 mps 752 mmHg 89%
    03:00 +14°C° 0.1 mm 6 mps 752 mmHg 89%
    04:00 +14°C° 0.1 mm 6 mps 752 mmHg 89%
    05:00 +14°C° 0.1 mm 6 mps 751 mmHg 89%
    06:00 +14°C° 0.1 mm 6 mps 752 mmHg 87%
    07:00 +14°C° 0.1 mm 6 mps 752 mmHg 86%
    08:00 +15°C° 0.1 mm 6 mps 753 mmHg 85%
    09:00 +15°C° 0.3 mm 6 mps 752 mmHg 84%
    10:00 +15°C° 0.3 mm 7 mps 752 mmHg 83%
    11:00 +16°C° 0.3 mm 7 mps 752 mmHg 82%
    12:00 +16°C° 0.3 mm 7 mps 752 mmHg 81%
    13:00 +16°C° 0.3 mm 8 mps 751 mmHg 81%
    14:00 +16°C° 0.3 mm 8 mps 751 mmHg 80%
    15:00 +15°C° 0.2 mm 8 mps 751 mmHg 82%
    16:00 +14°C° 0.2 mm 7 mps 751 mmHg 83%
    17:00 +13°C° 0.2 mm 6 mps 752 mmHg 84%
    18:00 +11°C° 0 mm 6 mps 752 mmHg 82%
    19:00 +12°C° 0 mm 5 mps 752 mmHg 80%
    20:00 +10°C° 0 mm 5 mps 752 mmHg 78%
    21:00 +9°C° 0 mm 5 mps 753 mmHg 79%
    22:00 +10°C° 0 mm 4 mps 753 mmHg 80%
    23:00 +10°C° 0 mm 4 mps 753 mmHg 81%

    Tomorrow, 18 November, Monday

    Time Temperature Precipitation Wind Pressure Humidity
    00:00 +8°C° 0 mm 4 mps 753 mmHg 82%
    01:00 +8°C° 0 mm 4 mps 753 mmHg 82%
    02:00 +9°C° 0 mm 3 mps 752 mmHg 83%
    03:00 +8°C° 0 mm 4 mps 753 mmHg 83%
    04:00 +8°C° 0 mm 4 mps 753 mmHg 83%
    05:00 +8°C° 0 mm 4 mps 753 mmHg 82%
    06:00 +10°C° 0 mm 4 mps 753 mmHg 79%
    07:00 +11°C° 0 mm 4 mps 753 mmHg 76%
    08:00 +12°C° 0 mm 4 mps 754 mmHg 72%
    09:00 +13°C° 0 mm 5 mps 754 mmHg 68%
    10:00 +14°C° 0 mm 5 mps 754 mmHg 64%
    11:00 +15°C° 0 mm 5 mps 753 mmHg 60%
    12:00 +15°C° 0 mm 5 mps 753 mmHg 59%
    13:00 +15°C° 0 mm 5 mps 753 mmHg 58%
    14:00 +15°C° 0 mm 5 mps 753 mmHg 57%
    15:00 +13°C° 0 mm 4 mps 753 mmHg 63%
    16:00 +12°C° 0 mm 4 mps 753 mmHg 69%
    17:00 +11°C° 0 mm 3 mps 753 mmHg 76%
    18:00 +12°C° 0 mm 2 mps 753 mmHg 77%
    19:00 +10°C° 0 mm 2 mps 753 mmHg 78%
    20:00 +11°C° 0 mm 1 mps 753 mmHg 79%
    21:00 +11°C° 0 mm 1 mps 753 mmHg 79%
    22:00 +11°C° 0 mm 1 mps 753 mmHg 79%
    23:00 +11°C° 0 mm 1 mps 753 mmHg 79%

    Day after tomorrow, 19 November, Tuesday

    Time Temperature Precipitation Wind Pressure Humidity
    00:00 +11°C° 0 mm 1 mps 753 mmHg 78%
    01:00 +11°C° 0 mm 1 mps 753 mmHg 77%
    02:00 +12°C° 0 mm 1 mps 752 mmHg 76%
    03:00 +12°C° 0 mm 1 mps 752 mmHg 76%
    04:00 +12°C° 0 mm 2 mps 752 mmHg 77%
    05:00 +10°C° 0 mm 3 mps 751 mmHg 77%
    06:00 +11°C° 0 mm 3 mps 751 mmHg 76%
    07:00 +12°C° 0 mm 3 mps 752 mmHg 75%
    08:00 +12°C° 0 mm 4 mps 752 mmHg 74%
    09:00 +13°C° 0 mm 5 mps 751 mmHg 72%
    10:00 +14°C° 0 mm 5 mps 751 mmHg 71%
    11:00 +14°C° 0 mm 6 mps 751 mmHg 70%
    12:00 +14°C° 0.5 mm 6 mps 750 mmHg 76%
    13:00 +14°C° 0.5 mm 7 mps 749 mmHg 81%
    14:00 +14°C° 0.5 mm 7 mps 749 mmHg 87%
    15:00 +12°C° 2.6 mm 7 mps 749 mmHg 89%
    16:00 +12°C° 2.6 mm 7 mps 748 mmHg 91%
    17:00 +12°C° 2.6 mm 7 mps 748 mmHg 93%
    18:00 +13°C° 2.9 mm 6 mps 748 mmHg 93%
    19:00 +13°C° 2.9 mm 5 mps 748 mmHg 93%
    20:00 +13°C° 2.9 mm 4 mps 748 mmHg 93%
    21:00 +13°C° 0.7 mm 4 mps 747 mmHg 92%
    22:00 +13°C° 0.7 mm 3 mps 747 mmHg 92%
    23:00 +12°C° 0.7 mm 3 mps 746 mmHg 91%

    20 November, Wednesday

    Time Temperature Precipitation Wind Pressure Humidity
    00:00 +12°C° 0 mm 3 mps 746 mmHg 90%
    01:00 +11°C° 0 mm 3 mps 745 mmHg 89%
    02:00 +12°C° 0 mm 2 mps 745 mmHg 88%
    03:00 +12°C° 0.1 mm 2 mps 745 mmHg 87%
    04:00 +11°C° 0.1 mm 3 mps 745 mmHg 87%
    05:00 +11°C° 0.1 mm 3 mps 745 mmHg 86%
    06:00 +12°C° 0.3 mm 3 mps 745 mmHg 85%
    07:00 +12°C° 0.3 mm 3 mps 745 mmHg 84%
    08:00 +13°C° 0.3 mm 4 mps 745 mmHg 82%
    09:00 +13°C° 0.6 mm 5 mps 745 mmHg 78%
    10:00 +14°C° 0.6 mm 6 mps 745 mmHg 74%
    11:00 +15°C° 0.6 mm 7 mps 745 mmHg 70%
    12:00 +15°C° 0.5 mm 7 mps 744 mmHg 69%
    13:00 +15°C° 0.5 mm 7 mps 744 mmHg 69%
    14:00 +15°C° 0.5 mm 7 mps 744 mmHg 68%
    15:00 +14°C° 0.2 mm 7 mps 744 mmHg 72%
    16:00 +13°C° 0.2 mm 6 mps 744 mmHg 75%
    17:00 +11°C° 0.2 mm 6 mps 744 mmHg 78%
    18:00 +12°C° 0.1 mm 5 mps 744 mmHg 78%
    19:00 +12°C° 0.1 mm 5 mps 744 mmHg 79%
    20:00 +12°C° 0.1 mm 5 mps 744 mmHg 79%
    21:00 +12°C° 0.3 mm 5 mps 744 mmHg 81%
    22:00 +12°C° 0.3 mm 5 mps 744 mmHg 82%
    23:00 +12°C° 0.3 mm 5 mps 744 mmHg 83%

    21 November, Thursday

    Time Temperature Precipitation Wind Pressure Humidity
    00:00 +12°C° 0.1 mm 5 mps 744 mmHg 83%
    01:00 +12°C° 0.1 mm 5 mps 743 mmHg 82%
    02:00 +12°C° 0.1 mm 5 mps 743 mmHg 82%
    03:00 +12°C° 0.1 mm 5 mps 743 mmHg 81%
    04:00 +12°C° 0.1 mm 5 mps 743 mmHg 81%
    05:00 +12°C° 0.1 mm 5 mps 743 mmHg 81%
    06:00 +12°C° 0.1 mm 4 mps 743 mmHg 80%
    07:00 +13°C° 0.1 mm 4 mps 743 mmHg 78%
    08:00 +13°C° 0.1 mm 3 mps 743 mmHg 77%
    09:00 +14°C° 0 mm 4 mps 743 mmHg 72%
    10:00 +15°C° 0 mm 4 mps 743 mmHg 67%
    11:00 +15°C° 0 mm 5 mps 743 mmHg 62%
    12:00 +15°C° 0.2 mm 5 mps 742 mmHg 64%
    13:00 +15°C° 0.2 mm 5 mps 742 mmHg 66%
    14:00 +14°C° 0.2 mm 4 mps 741 mmHg 67%
    15:00 +14°C° 0.1 mm 4 mps 742 mmHg 71%
    16:00 +13°C° 0.1 mm 4 mps 742 mmHg 75%
    17:00 +12°C° 0.1 mm 3 mps 742 mmHg 78%
    18:00 +11°C° 0 mm 3 mps 742 mmHg 79%
    19:00 +11°C° 0 mm 3 mps 742 mmHg 80%
    20:00 +10°C° 0 mm 3 mps 743 mmHg 81%
    21:00 +10°C° 0.2 mm 3 mps 743 mmHg 81%
    22:00 +11°C° 0.2 mm 4 mps 743 mmHg 80%
    23:00 +11°C° 0.2 mm 4 mps 743 mmHg 80%

    22 November, Friday

    Time Temperature Precipitation Wind Pressure Humidity
    00:00 +10°C° 0.4 mm 4 mps 743 mmHg 81%
    01:00 +10°C° 0.4 mm 4 mps 743 mmHg 82%
    02:00 +9°C° 0.4 mm 5 mps 743 mmHg 82%
    03:00 +9°C° 0.2 mm 5 mps 743 mmHg 81%
    04:00 +9°C° 0.2 mm 5 mps 743 mmHg 80%
    05:00 +10°C° 0.2 mm 4 mps 744 mmHg 79%
    06:00 +9°C° 0.1 mm 5 mps 744 mmHg 78%
    07:00 +10°C° 0.1 mm 5 mps 745 mmHg 76%
    08:00 +12°C° 0.1 mm 5 mps 745 mmHg 74%
    09:00 +13°C° 0.2 mm 5 mps 745 mmHg 70%
    10:00 +14°C° 0.2 mm 5 mps 746 mmHg 66%
    11:00 +14°C° 0.2 mm 6 mps 746 mmHg 62%
    12:00 +14°C° 0.3 mm 6 mps 746 mmHg 64%
    13:00 +14°C° 0.3 mm 7 mps 745 mmHg 65%
    14:00 +14°C° 0.3 mm 7 mps 745 mmHg 66%
    15:00 +12°C° 0.6 mm 7 mps 746 mmHg 71%
    16:00 +11°C° 0.6 mm 7 mps 746 mmHg 75%
    17:00 +11°C° 0.6 mm 7 mps 746 mmHg 79%
    18:00 +10°C° 0.1 mm 6 mps 747 mmHg 80%
    19:00 +10°C° 0.1 mm 6 mps 747 mmHg 81%
    20:00 +10°C° 0.1 mm 5 mps 748 mmHg 82%
    21:00 +9°C° 0 mm 5 mps 748 mmHg 83%
    22:00 +10°C° 0 mm 4 mps 749 mmHg 84%
    23:00 +10°C° 0 mm 4 mps 749 mmHg 84%
    Show more